FW9588 Weather Reports


Display with metric or nautical units.
time (UTC)temp
F
wind
direction
speed
MPH
gust
MPH
rain 1hr
in
rain 24hr
in
rain mn
in
humidity
%
barometer
mb
20260504234546 72 294 1.0 1.0 0.00 0.00 0.00 59 999.9
20260504234043 71 296 1.0 2.0 0.00 0.00 0.00 60 1000.0
20260504233538 71 35 1.0 1.0 0.00 0.00 0.00 61 1000.1
20260504233035 71 36 0.0 0.0 0.00 0.00 0.00 61 1000.1
20260504232532 71 350 1.0 2.0 0.00 0.00 0.00 61 999.8
20260504232030 71 193 5.0 7.0 0.00 0.00 0.00 62 1000.0
20260504231526 72 133 0.0 0.0 0.00 0.00 0.00 61 999.8
20260504231022 72 190 2.0 2.0 0.00 0.00 0.00 62 1000.0
20260504230519 72 106 3.0 5.0 0.00 0.00 0.00 60 1000.2
20260504230018 73 189 4.0 6.0 0.00 0.00 0.00 60 999.9
20260504225514 73 137 2.0 2.0 0.00 0.00 0.00 59 1000.2
20260504225012 73 304 3.0 7.0 0.00 0.00 0.00 59 1000.2
20260504224508 73 300 3.0 6.0 0.00 0.00 0.00 58 1000.1
20260504224005 73 347 0.0 1.0 0.00 0.00 0.00 57 1000.0
20260504223502 73 39 0.0 0.0 0.00 0.00 0.00 57 1000.3
20260504222957 74 346 3.0 6.0 0.00 0.00 0.00 56 1000.3
20260504222455 76 83 3.0 3.0 0.00 0.00 0.00 54 1000.0
20260504221952 76 36 3.0 6.0 0.00 0.00 0.00 53 1000.2
20260504221449 75 359 1.0 3.0 0.00 0.00 0.00 53 1000.3
20260504220946 76 318 3.0 5.0 0.00 0.00 0.00 50 1000.1
20260504220443 75 322 2.0 3.0 0.00 0.00 0.00 50 999.9
20260504215940 76 239 5.0 7.0 0.00 0.00 0.00 49 1000.0
20260504215436 77 127 3.0 5.0 0.00 0.00 0.00 48 1000.2
20260504214933 76 158 4.0 7.0 0.00 0.00 0.00 48 1000.2
20260504214429 75 338 1.0 5.0 0.00 0.00 0.00 49 1000.2
20260504213926 75 340 1.0 5.0 0.00 0.00 0.00 49 1000.1
20260504213422 75 194 3.0 3.0 0.00 0.00 0.00 48 1000.1
20260504212920 76 127 7.0 9.0 0.00 0.00 0.00 46 1000.2
20260504212415 77 294 0.0 1.0 0.00 0.00 0.00 45 1000.2
20260504211914 77 46 5.0 9.0 0.00 0.00 0.00 44 999.9
20260504211409 76 234 1.0 2.0 0.00 0.00 0.00 47 1000.2
20260504210907 76 13 4.0 6.0 0.00 0.00 0.00 46 1000.0
20260504210404 76 224 7.0 10.0 0.00 0.00 0.00 46 999.9
20260504205901 77 346 3.0 6.0 0.00 0.00 0.00 45 999.9
20260504205359 77 343 4.0 8.0 0.00 0.00 0.00 45 1000.2
20260504204857 78 130 2.0 5.0 0.00 0.00 0.00 44 1000.0
20260504204354 77 102 2.0 2.0 0.00 0.00 0.00 45 1000.0
20260504203854 78 181 3.0 5.0 0.00 0.00 0.00 45 1000.2
20260504203350 78 105 3.0 5.0 0.00 0.00 0.00 45 999.9
20260504202846 79 345 0.0 1.0 0.00 0.00 0.00 45 1000.2
20260504202344 78 22 3.0 6.0 0.00 0.00 0.00 45 1000.1
20260504201840 77 228 3.0 5.0 0.00 0.00 0.00 45 1000.3
20260504201337 77 182 3.0 6.0 0.00 0.00 0.00 46 1000.3
20260504200835 78 145 2.0 3.0 0.00 0.00 0.00 44 1000.3
20260504200331 77 346 3.0 6.0 0.00 0.00 0.00 45 1000.3
20260504195827 78 311 2.0 2.0 0.00 0.00 0.00 45 1000.2
20260504195323 80 207 5.0 7.0 0.00 0.00 0.00 44 1000.4
20260504194820 79 108 2.0 3.0 0.00 0.00 0.00 47 1000.4
20260504194316 79 13 1.0 2.0 0.00 0.00 0.00 46 1000.6
20260504193812 77 73 3.0 3.0 0.00 0.00 0.00 46 1000.7
20260504193310 77 316 3.0 3.0 0.00 0.00 0.00 48 1001.0
20260504192808 77 94 3.0 5.0 0.00 0.00 0.00 46 1001.0
20260504192306 77 121 2.0 2.0 0.00 0.00 0.00 46 1000.8
20260504191804 78 336 5.0 9.0 0.00 0.00 0.00 46 1001.0
20260504191301 78 18 2.0 3.0 0.00 0.00 0.00 45 1001.2
20260504190757 77 339 5.0 8.0 0.00 0.00 0.00 45 1001.1
20260504190253 77 28 2.0 2.0 0.00 0.00 0.00 46 1001.1
20260504185750 77 190 2.0 3.0 0.00 0.00 0.00 47 1001.3
20260504185247 77 351 2.0 3.0 0.00 0.00 0.00 51 1001.3
20260504184743 76 301 2.0 2.0 0.00 0.00 0.00 51 1001.4
20260504184239 75 295 1.0 1.0 0.00 0.00 0.00 53 1001.4
20260504183734 75 133 4.0 5.0 0.00 0.00 0.00 55 1001.7
20260504183232 75 131 2.0 5.0 0.00 0.00 0.00 53 1001.5
20260504182730 76 164 2.0 3.0 0.00 0.00 0.00 53 1001.9
20260504182227 76 164 2.0 6.0 0.00 0.00 0.00 52 1001.8
20260504181725 74 161 1.0 1.0 0.00 0.00 0.00 54 1001.7
20260504181222 76 21 4.0 5.0 0.00 0.00 0.00 51 1002.0
20260504180721 76 172 5.0 7.0 0.00 0.00 0.00 50 1001.9
20260504180219 75 85 3.0 5.0 0.00 0.00 0.00 52 1002.0
20260504175716 75 50 2.0 2.0 0.00 0.00 0.00 50 1001.9
20260504175213 75 11 1.0 1.0 0.00 0.00 0.00 51 1002.1
20260504174711 74 352 2.0 2.0 0.00 0.00 0.00 52 1002.1
20260504174209 75 315 2.0 2.0 0.00 0.00 0.00 51 1002.1
20260504173705 75 9 2.0 2.0 0.00 0.00 0.00 50 1002.0
20260504173202 75 3 0.0 0.0 0.00 0.00 0.00 53 1002.2
20260504172658 75 0 3.0 5.0 0.00 0.00 0.00 52 1002.1
20260504172155 74 207 3.0 5.0 0.00 0.00 0.00 52 1002.4
20260504171651 74 320 1.0 2.0 0.00 0.00 0.00 53 1002.4
20260504171148 74 114 2.0 2.0 0.00 0.00 0.00 51 1002.4
20260504170645 75 38 1.0 2.0 0.00 0.00 0.00 51 1002.5
20260504170143 74 115 1.0 2.0 0.00 0.00 0.00 51 1002.8
20260504151027 67 308 3.0 3.0 0.00 0.00 0.00 58 1004.3
20260504150525 67 309 2.0 2.0 0.00 0.00 0.00 57 1004.2
20260504140951 62 4 2.0 3.0 0.00 0.00 0.00 65 1004.8
20260504140447 62 252 0.0 1.0 0.00 0.00 0.00 66 1004.9
20260504130412 57 1 1.0 2.0 0.00 0.00 0.00 73 1005.2
20260504110259 51 15 0.0 0.0 0.00 0.00 0.00 81 1005.4
20260504100217 52 16 0.0 1.0 0.00 0.00 0.00 79 1005.2
20260504090140 52 131 2.0 3.0 0.00 0.00 0.00 79 1005.3
20260504081610 52 123 1.0 2.0 0.00 0.00 0.00 78 1005.4
20260504081106 52 123 0.0 1.0 0.00 0.00 0.00 78 1005.4
20260504080603 52 92 2.0 2.0 0.00 0.00 0.00 78 1005.5
20260504050415 53 161 2.0 2.0 0.00 0.00 0.00 75 1007.4
20260504045912 53 87 0.0 0.0 0.00 0.00 0.00 76 1007.6
20260504045408 53 125 1.0 2.0 0.00 0.00 0.00 76 1007.5
20260504044904 53 254 1.0 2.0 0.00 0.00 0.00 76 1007.6
20260504044402 53 101 1.0 1.0 0.00 0.00 0.00 76 1007.5
20260504043859 53 117 1.0 2.0 0.00 0.00 0.00 76 1007.7
20260504043356 53 155 2.0 2.0 0.00 0.00 0.00 76 1007.8
20260504042854 53 103 1.0 2.0 0.00 0.00 0.00 76 1007.6
20260504042349 53 127 2.0 3.0 0.00 0.00 0.00 76 1007.8
20260504041846 53 78 1.0 1.0 0.00 0.00 0.00 76 1007.7
20260504041342 53 93 1.0 1.0 0.00 0.00 0.00 76 1007.7
20260504040838 53 97 0.0 1.0 0.00 0.00 0.00 75 1007.5
20260504040336 53 156 3.0 3.0 0.00 0.00 0.00 76 1007.8
20260504035832 53 328 1.0 2.0 0.00 0.00 0.00 76 1007.9
20260504035330 53 142 1.0 2.0 0.00 0.00 0.00 75 1007.8
20260504034827 53 112 1.0 2.0 0.00 0.00 0.00 76 1008.1
20260504034324 53 124 3.0 3.0 0.00 0.00 0.00 75 1008.0
20260504033821 52 143 3.0 5.0 0.00 0.00 0.00 76 1008.0
20260504033319 53 149 3.0 3.0 0.00 0.00 0.00 76 1008.0
20260504032815 53 49 0.0 0.0 0.00 0.00 0.00 75 1007.9
20260504032313 53 158 3.0 3.0 0.00 0.00 0.00 75 1008.2
20260504031809 53 180 1.0 2.0 0.00 0.00 0.00 75 1008.0
20260504031307 52 174 3.0 3.0 0.00 0.00 0.00 76 1008.1
20260504030803 53 127 2.0 2.0 0.00 0.00 0.00 76 1008.3
20260504030300 53 161 1.0 2.0 0.00 0.00 0.00 76 1008.0
20260504025756 53 177 2.0 2.0 0.00 0.00 0.00 76 1008.0
20260504025253 53 129 2.0 2.0 0.00 0.00 0.00 76 1008.1
20260504024750 53 211 2.0 2.0 0.00 0.00 0.00 75 1008.0
20260504024246 53 150 2.0 3.0 0.00 0.00 0.00 74 1008.1
20260504023743 53 153 2.0 3.0 0.00 0.00 0.00 75 1008.1
20260504023240 53 330 2.0 3.0 0.00 0.00 0.00 74 1007.9
20260504022736 53 171 3.0 5.0 0.00 0.00 0.00 75 1008.0
20260504022232 53 68 1.0 2.0 0.00 0.00 0.00 76 1007.9
20260504021729 53 166 3.0 5.0 0.00 0.00 0.00 76 1007.9
20260504021226 53 165 3.0 3.0 0.00 0.00 0.00 78 1007.9
20260504020723 53 159 3.0 5.0 0.00 0.00 0.00 79 1008.0
20260504020220 53 219 3.0 6.0 0.00 0.00 0.00 79 1008.0
20260504015716 53 148 2.0 3.0 0.00 0.00 0.00 80 1008.1
20260504015213 53 135 3.0 3.0 0.00 0.00 0.00 80 1007.9
20260504014708 52 131 2.0 2.0 0.00 0.00 0.00 81 1008.1
20260504014205 52 125 1.0 2.0 0.00 0.00 0.00 82 1008.0
20260504013703 52 74 0.0 1.0 0.00 0.00 0.00 83 1008.1
20260504013200 52 144 1.0 2.0 0.00 0.00 0.00 83 1008.0
20260504012656 52 122 1.0 1.0 0.00 0.00 0.00 83 1008.3
20260504012155 52 136 2.0 2.0 0.00 0.00 0.00 83 1008.2
20260504011651 53 160 1.0 2.0 0.00 0.00 0.00 83 1007.9
20260504011148 53 165 3.0 3.0 0.00 0.00 0.00 82 1008.1
20260504010644 53 130 1.0 2.0 0.00 0.00 0.00 82 1008.2
20260504010139 53 158 1.0 3.0 0.00 0.00 0.00 82 1008.4
20260504005637 53 136 1.0 1.0 0.00 0.00 0.00 82 1008.3
20260504005133 53 91 0.0 0.0 0.00 0.00 0.00 82 1008.3
20260504004632 53 88 0.0 0.0 0.00 0.00 0.00 82 1008.1
20260504004129 53 169 2.0 2.0 0.00 0.00 0.00 81 1008.1
20260504003625 53 161 2.0 2.0 0.00 0.00 0.00 81 1008.2
20260504003121 54 137 1.0 1.0 0.00 0.00 0.00 80 1008.4
20260504002618 54 125 1.0 1.0 0.00 0.00 0.00 80 1008.2
20260504002116 54 121 1.0 1.0 0.00 0.00 0.00 80 1008.3
20260504001614 54 149 1.0 2.0 0.00 0.00 0.00 79 1008.3
20260504001109 54 147 0.0 2.0 0.00 0.00 0.00 78 1008.5
20260504000607 54 162 2.0 5.0 0.00 0.00 0.00 78 1008.5
20260504000104 54 269 3.0 5.0 0.00 0.00 0.00 78 1008.5
20260503235602 54 172 5.0 6.0 0.00 0.00 0.00 78 1008.4
20260503235058 54 164 2.0 2.0 0.00 0.00 0.00 78 1008.3